When you browse on this site, cookies collect data to enhance your experience and personalize the content and advertising you see.
Visit our Privacy Policy to learn more. By continuing to use the site, you agree to this use of cookies and data.
EN

Hourly Weather Uhlove

Today, 14 August, Friday

Time Temperature Precipitation Wind Pressure Humidity
00:00 +17°C° 0 mm 2 mps 756 mmHg 53%
01:00 +17°C° 0 mm 2 mps 756 mmHg 52%
02:00 +17°C° 0 mm 2 mps 756 mmHg 53%
03:00 +17°C° 0 mm 2 mps 756 mmHg 54%
04:00 +17°C° 0 mm 2 mps 756 mmHg 54%
05:00 +17°C° 0 mm 2 mps 756 mmHg 55%
06:00 +19°C° 0 mm 2 mps 756 mmHg 49%
07:00 +23°C° 0 mm 1 mps 756 mmHg 43%
08:00 +25°C° 0 mm 2 mps 756 mmHg 36%
09:00 +26°C° 0 mm 3 mps 756 mmHg 35%
10:00 +27°C° 0 mm 4 mps 756 mmHg 34%
11:00 +28°C° 0 mm 4 mps 756 mmHg 33%
12:00 +28°C° 0 mm 5 mps 756 mmHg 33%
13:00 +28°C° 0 mm 6 mps 756 mmHg 34%
14:00 +28°C° 0 mm 6 mps 756 mmHg 35%
15:00 +28°C° 0 mm 6 mps 756 mmHg 36%
16:00 +27°C° 0 mm 6 mps 756 mmHg 37%
17:00 +26°C° 0 mm 6 mps 756 mmHg 38%
18:00 +23°C° 0 mm 6 mps 756 mmHg 45%
19:00 +22°C° 0 mm 5 mps 756 mmHg 52%
20:00 +20°C° 0 mm 5 mps 756 mmHg 58%
21:00 +19°C° 0 mm 4 mps 756 mmHg 60%
22:00 +18°C° 0 mm 4 mps 756 mmHg 61%
23:00 +17°C° 0 mm 4 mps 756 mmHg 63%

Tomorrow, 15 August, Saturday

Time Temperature Precipitation Wind Pressure Humidity
00:00 +17°C° 0 mm 4 mps 756 mmHg 63%
01:00 +17°C° 0 mm 3 mps 756 mmHg 64%
02:00 +16°C° 0 mm 3 mps 756 mmHg 64%
03:00 +16°C° 0 mm 3 mps 756 mmHg 64%
04:00 +16°C° 0 mm 3 mps 756 mmHg 65%
05:00 +16°C° 0 mm 3 mps 756 mmHg 65%
06:00 +18°C° 0 mm 3 mps 757 mmHg 57%
07:00 +20°C° 0 mm 3 mps 757 mmHg 50%
08:00 +24°C° 0 mm 3 mps 757 mmHg 42%
09:00 +25°C° 0 mm 3 mps 757 mmHg 39%
10:00 +26°C° 0 mm 3 mps 757 mmHg 35%
11:00 +27°C° 0 mm 3 mps 757 mmHg 31%
12:00 +28°C° 0 mm 4 mps 757 mmHg 30%
13:00 +28°C° 0 mm 4 mps 757 mmHg 29%
14:00 +29°C° 0 mm 5 mps 757 mmHg 28%
15:00 +28°C° 0 mm 5 mps 757 mmHg 31%
16:00 +27°C° 0 mm 5 mps 756 mmHg 33%
17:00 +27°C° 0 mm 5 mps 756 mmHg 35%
18:00 +23°C° 0 mm 5 mps 756 mmHg 42%
19:00 +21°C° 0 mm 5 mps 756 mmHg 49%
20:00 +19°C° 0 mm 6 mps 756 mmHg 55%
21:00 +17°C° 0 mm 5 mps 756 mmHg 59%
22:00 +18°C° 0 mm 4 mps 756 mmHg 62%
23:00 +17°C° 0 mm 3 mps 756 mmHg 65%

Day after tomorrow, 16 August, Sunday

Time Temperature Precipitation Wind Pressure Humidity
00:00 +17°C° 0 mm 3 mps 756 mmHg 66%
01:00 +15°C° 0 mm 4 mps 756 mmHg 68%
02:00 +15°C° 0 mm 4 mps 755 mmHg 69%
03:00 +15°C° 0 mm 4 mps 755 mmHg 68%
04:00 +15°C° 0 mm 4 mps 755 mmHg 68%
05:00 +17°C° 0 mm 4 mps 755 mmHg 67%
06:00 +19°C° 0 mm 5 mps 755 mmHg 60%
07:00 +21°C° 0 mm 5 mps 755 mmHg 53%
08:00 +23°C° 0 mm 5 mps 756 mmHg 47%
09:00 +25°C° 0 mm 5 mps 756 mmHg 43%
10:00 +27°C° 0 mm 5 mps 756 mmHg 40%
11:00 +28°C° 0 mm 4 mps 756 mmHg 36%
12:00 +28°C° 0 mm 4 mps 756 mmHg 36%
13:00 +28°C° 0 mm 5 mps 756 mmHg 35%
14:00 +28°C° 0 mm 5 mps 756 mmHg 34%
15:00 +28°C° 0 mm 5 mps 756 mmHg 36%
16:00 +27°C° 0 mm 5 mps 756 mmHg 37%
17:00 +26°C° 0 mm 5 mps 756 mmHg 39%
18:00 +23°C° 0 mm 4 mps 756 mmHg 45%
19:00 +21°C° 0 mm 4 mps 756 mmHg 51%
20:00 +18°C° 0 mm 4 mps 757 mmHg 57%
21:00 +18°C° 0 mm 4 mps 757 mmHg 59%
22:00 +17°C° 0 mm 4 mps 757 mmHg 60%
23:00 +17°C° 0 mm 4 mps 757 mmHg 61%

17 August, Monday

Time Temperature Precipitation Wind Pressure Humidity
00:00 +17°C° 0 mm 4 mps 757 mmHg 62%
01:00 +17°C° 0 mm 3 mps 757 mmHg 63%
02:00 +16°C° 0 mm 3 mps 757 mmHg 64%
03:00 +16°C° 0 mm 3 mps 757 mmHg 64%
04:00 +16°C° 0 mm 3 mps 757 mmHg 65%
05:00 +16°C° 0 mm 3 mps 757 mmHg 66%
06:00 +19°C° 0 mm 3 mps 757 mmHg 58%
07:00 +22°C° 0 mm 3 mps 757 mmHg 49%
08:00 +25°C° 0 mm 3 mps 757 mmHg 41%
09:00 +27°C° 0 mm 3 mps 757 mmHg 37%
10:00 +28°C° 0 mm 4 mps 757 mmHg 34%
11:00 +30°C° 0 mm 4 mps 757 mmHg 30%
12:00 +30°C° 0 mm 4 mps 757 mmHg 29%
13:00 +32°C° 0 mm 5 mps 757 mmHg 28%
14:00 +32°C° 0 mm 5 mps 757 mmHg 27%
15:00 +30°C° 0 mm 4 mps 757 mmHg 30%
16:00 +30°C° 0 mm 4 mps 756 mmHg 32%
17:00 +29°C° 0 mm 3 mps 756 mmHg 34%
18:00 +26°C° 0 mm 3 mps 756 mmHg 41%
19:00 +24°C° 0 mm 3 mps 756 mmHg 49%
20:00 +20°C° 0 mm 2 mps 756 mmHg 56%
21:00 +20°C° 0 mm 2 mps 756 mmHg 56%
22:00 +19°C° 0 mm 2 mps 756 mmHg 55%
23:00 +19°C° 0 mm 2 mps 756 mmHg 55%

18 August, Tuesday

Time Temperature Precipitation Wind Pressure Humidity
00:00 +19°C° 0 mm 2 mps 756 mmHg 54%
01:00 +19°C° 0 mm 3 mps 755 mmHg 54%
02:00 +19°C° 0 mm 3 mps 755 mmHg 53%
03:00 +19°C° 0 mm 3 mps 755 mmHg 53%
04:00 +19°C° 0 mm 3 mps 755 mmHg 54%
05:00 +19°C° 0 mm 3 mps 755 mmHg 54%
06:00 +23°C° 0 mm 2 mps 755 mmHg 48%
07:00 +25°C° 0 mm 2 mps 755 mmHg 41%
08:00 +28°C° 0 mm 2 mps 755 mmHg 34%
09:00 +29°C° 0 mm 2 mps 755 mmHg 32%
10:00 +31°C° 0 mm 2 mps 755 mmHg 30%
11:00 +33°C° 0 mm 3 mps 754 mmHg 29%
12:00 +33°C° 0 mm 3 mps 754 mmHg 29%
13:00 +33°C° 0 mm 4 mps 754 mmHg 30%
14:00 +32°C° 0 mm 4 mps 754 mmHg 31%
15:00 +30°C° 0 mm 4 mps 754 mmHg 35%
16:00 +29°C° 0 mm 4 mps 753 mmHg 39%
17:00 +28°C° 0 mm 4 mps 753 mmHg 42%
18:00 +26°C° 0 mm 3 mps 753 mmHg 48%
19:00 +24°C° 0 mm 3 mps 753 mmHg 53%
20:00 +21°C° 0 mm 3 mps 753 mmHg 59%
21:00 +21°C° 0 mm 2 mps 753 mmHg 60%
22:00 +21°C° 0 mm 2 mps 753 mmHg 61%
23:00 +20°C° 0 mm 2 mps 753 mmHg 62%

19 August, Wednesday

Time Temperature Precipitation Wind Pressure Humidity
00:00 +20°C° 0 mm 2 mps 753 mmHg 61%
01:00 +20°C° 0 mm 2 mps 753 mmHg 61%
02:00 +20°C° 0 mm 2 mps 753 mmHg 60%
03:00 +20°C° 0 mm 2 mps 753 mmHg 60%
04:00 +20°C° 0 mm 2 mps 753 mmHg 59%
05:00 +19°C° 0 mm 3 mps 753 mmHg 59%
06:00 +23°C° 0 mm 2 mps 753 mmHg 51%
07:00 +26°C° 0 mm 2 mps 753 mmHg 43%
08:00 +29°C° 0 mm 1 mps 753 mmHg 35%
09:00 +31°C° 0 mm 2 mps 753 mmHg 32%
10:00 +32°C° 0 mm 2 mps 753 mmHg 29%
11:00 +34°C° 0 mm 2 mps 753 mmHg 25%
12:00 +34°C° 0 mm 3 mps 753 mmHg 26%
13:00 +34°C° 0 mm 3 mps 752 mmHg 27%
14:00 +34°C° 0 mm 4 mps 752 mmHg 27%
15:00 +33°C° 0 mm 4 mps 752 mmHg 30%
16:00 +31°C° 0 mm 3 mps 752 mmHg 34%
17:00 +30°C° 0 mm 3 mps 752 mmHg 37%
18:00 +28°C° 0 mm 2 mps 752 mmHg 42%
19:00 +26°C° 0 mm 2 mps 751 mmHg 47%
20:00 +24°C° 0 mm 2 mps 751 mmHg 53%
21:00 +23°C° 0 mm 2 mps 751 mmHg 51%
22:00 +23°C° 0 mm 2 mps 751 mmHg 50%
23:00 +23°C° 0 mm 1 mps 751 mmHg 49%
Show more